Regional Weather Roundup
Issued by NWS

Home | Current Version | Previous Version | Graphics & Text | Print | Product List | Glossary Off
Versions: 1 2 3 4 5 6 7 8 9 10 11 12 13 14 15 16 17 18 19 20 21 22 23 24 25 26 27 28 29 30 31 32 33 34 35 36 37 38 39 40 41 42 43 44 45 46 47 48 49 50

000
ASUS43 KMKX 270610
RWRWI

WISCONSIN REGIONAL WEATHER ROUNDUP
NATIONAL WEATHER SERVICE MILWAUKEE/SULLIVAN WI
1200 AM CST TUE JAN 27 2015

NOTE: "FAIR" INDICATES FEW OR NO CLOUDS BELOW 12,000 FEET WITH NO
SIGNIFICANT WEATHER AND/OR OBSTRUCTIONS TO VISIBILITY.

WIZ001-002-006>008-014>016-023>028-270700-
NORTHWEST WISCONSIN

CITY           SKY/WX    TMP DP  RH WIND       PRES   REMARKS
SUPERIOR ARPT  CLOUDY    29  24  82 N6        30.00R WCI  23
6HR MIN TEMP:  28; 6HR MAX TEMP:  32;

ASHLAND        CLOUDY    25  23  92 W3        29.98R
6HR MIN TEMP:  24; 6HR MAX TEMP:  25;

HAYWARD        CLOUDY    27  24  89 NW5       29.95R WCI  22
6HR MIN TEMP:  25; 6HR MAX TEMP:  28;

SIREN          CLOUDY    31  24  74 N12G17    29.98R WCI  22
6HR MIN TEMP:  31; 6HR MAX TEMP:  35;

CUMBERLAND     CLOUDY    30  25  80 N9        29.96R WCI  22
RICE LAKE      CLOUDY    31  26  83 N8        29.97R WCI  23
6HR MIN TEMP:  27; 6HR MAX TEMP:  31;

CHETEK         CLOUDY    29  26  89 N13G18    29.95R WCI  19
6HR MIN TEMP:  26; 6HR MAX TEMP:  29;

LADYSMITH      CLOUDY    25  24  93 N6        29.96R WCI  18
6HR MIN TEMP:  24; 6HR MAX TEMP:  25;

EAU CLAIRE     CLOUDY    27  24  89 CALM      29.95R
6HR MIN TEMP:  27; 6HR MAX TEMP:  27; 6HR PCP: TRACE;

MENOMONIE      CLOUDY    31  29  92 CALM      29.96R FOG
6HR MIN TEMP:  30; 6HR MAX TEMP:  31;

NEW RICHMOND   CLOUDY    34  26  74 N14G20    29.98R WCI  24
6HR MIN TEMP:  34; 6HR MAX TEMP:  37;

OSCEOLA        CLOUDY    34  28  77 N5        30.01R WCI  30
6HR MIN TEMP:  34; 6HR MAX TEMP:  39;

$$

WIZ003>005-009-010-017-018-270700-
NORTH CENTRAL WISCONSIN

CITY           SKY/WX    TMP DP  RH WIND       PRES   REMARKS
MANITOWISH WTR CLOUDY    19  17  93 CALM      29.91R
6HR MIN TEMP:  19; 6HR MAX TEMP:  19;

ARBOR VITAE    CLOUDY    22  19  90 CALM      29.92R
6HR MIN TEMP:  20; 6HR MAX TEMP:  22;

WOODRUFF       CLOUDY    22  19  90 CALM      29.92R
6HR MIN TEMP:  20; 6HR MAX TEMP:  22;

RHINELANDER    CLOUDY    19  17  92 CALM      29.91R
6HR MIN TEMP:  19; 6HR MAX TEMP:  20; 6HR PCP:  0.01;

EAGLE RIVER    CLOUDY    19  16  86 CALM      29.91R
6HR MIN TEMP:  19; 6HR MAX TEMP:  20;

LAND O LAKES   CLOUDY    19  17  92 CALM      29.92R
6HR MIN TEMP:  19; 6HR MAX TEMP:  20;

PHILLIPS       CLOUDY    20  18  93 CALM      29.92R
6HR MIN TEMP:  20; 6HR MAX TEMP:  20;

TOMAHAWK       CLOUDY    20  18  93 CALM      29.92R FOG
6HR MIN TEMP:  19; 6HR MAX TEMP:  20;

MEDFORD        CLOUDY    20  19  93 CALM      29.91R
6HR MIN TEMP:  20; 6HR MAX TEMP:  21;

MERRILL        CLOUDY    20  20  98 CALM      29.93R FOG
6HR MIN TEMP:  20; 6HR MAX TEMP:  21;

$$

WIZ029-030-035-036-043>047-270700-
CENTRAL WISCONSIN

CITY           SKY/WX    TMP DP  RH WIND       PRES   REMARKS
WAUSAU         CLOUDY    21  19  92 NE3       29.91R
6HR MIN TEMP:  21; 6HR MAX TEMP:  22; 6HR PCP:  0.01;

MOSINEE        CLOUDY    21  21 100 NE5       29.92R WCI  15
MARSHFIELD     CLOUDY    23  20  88 NE3       29.92R FOG
6HR MIN TEMP:  23; 6HR MAX TEMP:  24; 6HR PCP: TRACE;

STEVENS POINT  CLOUDY    20  19  95 N3        29.93R
6HR MIN TEMP:  20; 6HR MAX TEMP:  20;

WAUPACA        CLOUDY    25  23  89 CALM      29.94R FOG
6HR MIN TEMP:  25; 6HR MAX TEMP:  26; 6HR PCP:  0.01;

WAUTOMA        CLOUDY    23  23 100 CALM      29.93R
6HR MIN TEMP:  23; 6HR MAX TEMP:  24; 6HR PCP: TRACE;

WISC RAPIDS    CLOUDY    23  19  85 N3        29.94R
6HR MIN TEMP:  23; 6HR MAX TEMP:  23; 6HR PCP:  0.01;

CAMP DOUGLAS   CLOUDY    24  24 100 N3        29.93R
6HR MIN TEMP:  24; 6HR MAX TEMP:  24; 6HR PCP: TRACE;

$$

WIZ011>013-019>022-031-037>040-048>050-270700-
NORTHEAST WISCONSIN

CITY           SKY/WX    TMP DP  RH WIND       PRES   REMARKS
ANTIGO         CLOUDY    20  19  96 E5        29.92R WCI  14
6HR MIN TEMP:  19; 6HR MAX TEMP:  20;

SHAWANO        FLURRIES  25  22  89 NE3       29.96R
6HR MIN TEMP:  25; 6HR MAX TEMP:  26; 6HR PCP:  0.04;

OCONTO         CLOUDY    23  22  98 CALM      29.99R
6HR MIN TEMP:  23; 6HR MAX TEMP:  25; 6HR PCP:  0.02;

STURGEON BAY   CLOUDY    23  18  80 SE6       30.00R WCI  16
6HR MIN TEMP:  23; 6HR MAX TEMP:  25;

GREEN BAY      LGT SNOW  24  22  91 E6        29.97R FOG     WCI  17
6HR MIN TEMP:  24; 6HR MAX TEMP:  25; 6HR PCP:  0.11;

MANITOWOC      LGT SNOW  25  22  88 E10       29.97R FOG     WCI  15
6HR MIN TEMP:  25; 6HR MAX TEMP:  28; 6HR PCP: TRACE;

APPLETON       FLURRIES  25  23  93 E5        29.93S WCI  19
CLINTONVILLE   CLOUDY    25  23  93 E3        29.94R
OSHKOSH        CLOUDY    23  20  88 N3        29.93R FOG
6HR MIN TEMP:  23; 6HR MAX TEMP:  24; 6HR PCP:  0.03;

$$

WIZ032>034-041-042-053>061-270700-
SOUTHWEST WISCONSIN

CITY           SKY/WX    TMP DP  RH WIND       PRES   REMARKS
LA CROSSE      CLOUDY    30  27  88 NW3       29.95R FOG
6HR MIN TEMP:  30; 6HR MAX TEMP:  31; 6HR PCP: TRACE;

SPARTA         CLOUDY    27  27 100 CALM      29.95R FOG
6HR MIN TEMP:  26; 6HR MAX TEMP:  27;

VIROQUA        CLOUDY    29  29 100 NW7       29.91R WCI  22
6HR MIN TEMP:  26; 6HR MAX TEMP:  29;

BOSCOBEL       CLOUDY    27  25  92 CALM      29.94R FOG
6HR MIN TEMP:  27; 6HR MAX TEMP:  28;

PRAIRIE DU CHI CLOUDY    30  27  90 CALM      29.94R FOG
6HR MIN TEMP:  29; 6HR MAX TEMP:  30;

PLATTEVILLE    CLOUDY    27  26  96 CALM      29.91R
6HR MIN TEMP:  26; 6HR MAX TEMP:  27;

$$

WIZ056-057-062-063-064-067-068-270700-
SOUTH CENTRAL WISCONSIN

CITY           SKY/WX    TMP DP  RH WIND       PRES   REMARKS
REEDSBURG      CLOUDY    24  23  97 CALM      29.92R FOG
6HR MIN TEMP:  23; 6HR MAX TEMP:  24; 6HR PCP:  0.01;

BARABOO/DELLS  CLOUDY    23  22  94 CALM      29.91R FOG
6HR MIN TEMP:  22; 6HR MAX TEMP:  23;

LONE ROCK      CLOUDY    25  23  92 CALM      29.94R
6HR MIN TEMP:  25; 6HR MAX TEMP:  26; 6HR PCP: TRACE;

MINERAL POINT  CLOUDY    28  27  93 CALM      29.90R FOG
MADISON        CLOUDY    24  21  88 CALM      29.90S FOG
6HR MIN TEMP:  24; 6HR MAX TEMP:  25; 6HR PCP: TRACE;

MIDDLETON      CLOUDY    26  25  96 CALM      29.91S
6HR MIN TEMP:  25; 6HR MAX TEMP:  26;

WATERTOWN      CLOUDY    24  24 100 CALM      29.91S
6HR MIN TEMP:  24; 6HR MAX TEMP:  24; 6HR PCP:  0.02;

MONROE         FOG       27  27 100 CALM      29.90R VSB 1/2
JANESVILLE     CLOUDY    28  27  93 CALM      29.91R FOG
$$

WIZ051-052-058>065-066-070>072-270700-
SOUTHEAST WISCONSIN

CITY           SKY/WX    TMP DP  RH WIND       PRES   REMARKS
MILWAUKEE      LGT SNOW  27  21  78 CALM      29.93R
6HR MIN TEMP:  25; 6HR MAX TEMP:  27; 6HR PCP:  0.04;

WAUKESHA       CLOUDY    23  21  93 CALM      29.92S FOG
MILWAUKEE/TIMM LGT SNOW  27  23  86 CALM      29.93S
RACINE         CLOUDY    27  22  81 CALM      29.94R
6HR MIN TEMP:  26; 6HR MAX TEMP:  27; 6HR PCP: TRACE;

BURLINGTON     LGT SNOW  23  22  97 CALM      29.92R
6HR MIN TEMP:  23; 6HR MAX TEMP:  24; 6HR PCP:  0.02;

KENOSHA        CLOUDY    26  23  88 CALM      29.92R
6HR MIN TEMP:  26; 6HR MAX TEMP:  26; 6HR PCP:  0.03;

FOND DU LAC    CLOUDY    24  21  88 S3        29.92S
6HR MIN TEMP:  24; 6HR MAX TEMP:  25; 6HR PCP:  0.07;

SHEBOYGAN      CLOUDY    26  22  84 SE5       29.94R WCI  20
6HR MIN TEMP:  25; 6HR MAX TEMP:  26; 6HR PCP:  0.02;

WEST BEND      CLOUDY    23  21  93 CALM      29.91F
JUNEAU         CLOUDY    24  22  95 CALM      29.92S FOG
6HR MIN TEMP:  24; 6HR MAX TEMP:  24;

$$

LSZ147-162-270700-
LAKE SUPERIOR

STATION/POSITION TIME  TEMP    WIND        PRES    WAVE
                       AIR SEA DIR/SP/G            HT/PER
                 (UTC) (F)     (DEG/KT/KT) (MB)    (FT/S)
DEVILS ISLAND    0600   29      20/  8/  9 1016.3R
PORT WING        0500   30     350/ 12/ 14 1014.9R
SAXON HARBOR     0500   25        CALM     1014.6R
$$

LMZ867-665-643>646-270700-
LAKE MICHIGAN

STATION/POSITION TIME  TEMP    WIND        PRES    WAVE


USA.gov is the U.S. government's official web portal to all federal, state and local government web resources and services.